Location: Unspecified
(57.6483°N, 3.3184°W)
Time: 09:55:18
(UTC+00:00)

BlueWalker 3 - Pass Details

Date: 27 January 2026
Orbit: 450 x 461 km, 53.2° (Epoch: 11 February)

Event Time Altitude Azimuth Distance (km) Brightness Sun altitude
Rises 18:37:46 0° 240° (WSW) 2,455 6.7 -16.9°
Reaches altitude 10° 18:40:01 10° 231° (SW) 1,583 5.3 -17.2°
Maximum altitude 18:43:15 33° 165° (SSE) 776 2.8 -17.7°
Enters shadow 18:43:53 31° 142° (SE) 822 2.7 -17.7°
